カタログに戻る

SL-12 DEB

LostHEO
NORAD 43686·DEBRIS·🇷🇺 Russia

打ち上げ Mar 1, 2010 から Baikonur Cosmodrome

Loading…

次のパス (今後24時間)

TLE

古いSource: Space-Track

元期: Dec 16, 2023, 00:09 UTC

1 43686U 10007AL  23350.00648146  .00000254  00000-0  83006-3 0  9998
2 43686  64.6913 182.6236 5692823 339.0490   4.8436  4.24670752109214

AllMySatでSL-12 DEBをリアルタイム追跡

Download on the App Store